EHI
43 47 47 48 58 67 67 59 52 49 43 35 32 33 31 27 25 29 36 37 33 29 26 24 27 28 25 19 11 7 6 4 4 4 4 6 10 15 18 18 17 19 22
48 54 53 50 60 71 71 64 58 54 48 39 32 28 26 25 27 36 41 39 36 34 31 29 28 30 30 26 19 15 11 6 3 4 4 4 6 8 10 13 16 18 20
52 59 58 54 63 74 75 69 66 63 57 48 38 31 30 30 33 42 46 44 41 39 37 35 32 30 31 30 27 24 20 12 4 3 4 2 2 2 3 6 12 17 19
54 61 62 59 65 73 77 76 74 71 65 57 47 40 39 39 39 45 49 49 45 41 39 39 37 33 31 31 29 27 23 16 6 3 3 4 3 3 2 3 7 12 15
54 60 63 64 68 73 78 81 82 79 71 61 53 47 42 40 42 47 50 49 48 45 42 42 41 37 33 32 31 26 21 15 9 4 4 5 6 6 5 5 5 8 9
54 58 64 69 73 75 78 83 86 84 74 63 55 51 45 40 40 44 47 46 47 48 47 45 45 40 35 34 35 31 23 18 14 10 7 5 5 5 6 6 5 6 7
52 57 65 72 78 79 80 85 88 86 76 64 59 57 52 43 40 41 42 43 44 47 50 50 49 44 37 35 36 34 29 25 22 17 11 7 5 4 6 6 5 5 5
46 53 63 72 79 82 83 87 91 88 78 67 62 62 57 48 43 43 41 40 41 45 51 54 52 48 40 34 34 33 32 32 29 22 17 14 9 8 8 7 5 4 4
40 47 56 65 74 80 85 89 92 88 80 71 66 65 62 55 50 49 46 42 42 46 53 55 51 47 41 36 33 31 31 33 32 27 23 19 14 11 11 10 8 6 5
35 42 51 57 64 72 81 89 92 89 83 75 67 64 63 59 55 53 51 49 47 51 57 56 49 44 43 40 36 32 32 33 32 29 26 21 15 12 12 13 11 9 8
33 41 50 56 61 65 74 84 90 89 84 76 68 64 62 61 58 56 55 55 54 56 59 56 48 45 45 43 39 35 33 32 31 28 25 21 16 13 13 14 13 11 10
36 42 54 62 64 65 70 78 83 84 80 76 72 67 65 64 61 58 57 58 59 59 58 56 51 49 49 48 45 40 35 32 30 27 23 19 15 14 14 15 15 12 10
41 48 59 66 68 68 70 74 76 76 75 76 75 71 68 67 64 60 59 60 60 59 56 55 55 55 56 54 50 44 38 33 28 25 22 17 13 12 13 14 15 13 9
48 53 62 66 68 69 71 72 72 73 74 76 76 74 70 67 65 63 63 63 62 60 58 57 57 57 55 53 48 44 40 34 27 23 20 14 10 8 7 9 11 11 9
53 58 64 67 68 69 69 69 70 73 74 76 77 75 71 68 67 67 69 68 66 63 60 58 56 52 46 41 39 40 40 35 27 22 17 10 6 4 4 5 6 7 7
54 58 64 67 68 68 68 67 68 72 74 76 75 73 71 70 70 71 72 72 69 64 59 54 52 46 36 27 28 34 37 33 27 22 16 8 4 4 4 3 3 4 4
47 51 57 62 65 66 66 65 66 69 72 73 72 71 71 70 71 71 71 70 67 60 54 50 48 43 30 19 17 24 30 29 25 22 17 11 7 6 6 5 4 3 3
42 45 49 54 59 61 62 62 62 64 65 65 66 66 67 68 68 68 67 65 61 55 50 48 47 40 25 12 9 15 22 25 22 20 18 15 10 8 7 8 8 6 5
43 43 44 47 51 53 54 56 58 58 57 56 56 58 62 64 65 65 64 61 57 52 49 47 44 36 22 10 5 9 17 21 19 18 17 15 11 7 5 6 8 8 7
44 43 43 44 46 47 49 52 54 52 50 49 51 54 57 60 61 62 61 58 55 52 47 42 39 35 25 12 4 6 13 18 18 18 15 12 8 4 2 3 5 6 6
44 44 45 45 45 45 47 50 51 49 46 46 48 52 55 55 55 56 56 54 52 50 44 38 36 36 28 14 5 4 8 14 17 17 15 10 5 1 0 1 2 3 3
43 43 45 45 45 44 44 46 48 48 47 46 47 49 50 49 49 50 49 48 47 44 39 36 34 34 29 16 6 2 3 7 12 14 12 7 2 0 0 0 1 1 1
37 38 41 42 40 38 38 40 42 44 46 47 47 45 44 44 46 46 44 41 38 35 34 34 32 31 28 18 7 2 1 2 5 7 6 3 1 0 0 0 0 0 0
31 32 35 35 34 32 33 35 36 38 42 44 44 42 41 41 42 41 37 32 29 29 31 32 29 27 24 19 12 6 2 1 2 3 1 0 0 0 0 1 1 0 0
28 29 29 30 30 28 29 31 32 34 38 40 40 39 38 36 36 34 28 23 22 22 23 24 23 20 18 16 12 8 4 2 2 2 1 0 1 1 1 3 3 2 1
27 27 26 27 28 25 25 28 30 32 36 38 37 36 35 33 32 29 22 18 18 18 17 17 17 15 14 12 9 6 5 4 3 2 1 1 2 2 3 4 5 4 3
Wind_Speed
14 14 13 13 13 10 9 8 7 7 5 4 4 4 4 3 3 4 5 5 4 4 3 2 2 3 2 3 3 2 3 3 3 2 3 4 5 5 5 5 4 5 6
15 14 13 13 13 12 10 9 8 8 7 5 3 3 3 3 3 3 4 5 5 5 5 4 3 3 2 3 2 2 2 3 2 2 2 2 2 3 5 3 4 4 3
17 16 15 14 13 13 12 10 9 9 8 6 4 3 3 2 2 3 3 4 5 5 4 4 4 3 3 3 3 3 4 3 2 2 2 1 2 2 2 3 3 3 3
16 16 15 14 14 14 13 10 10 8 8 7 6 6 4 4 4 3 3 4 5 5 5 5 4 3 2 3 3 3 3 3 3 2 2 3 2 1 2 2 2 2 3
16 17 17 15 14 14 13 11 10 9 8 8 7 6 5 4 3 3 3 3 4 5 5 4 4 3 3 3 3 1 2 2 3 2 2 2 2 3 2 3 3 2 2
14 15 16 14 12 13 13 13 11 10 9 8 7 6 5 4 3 3 3 4 3 4 5 5 4 4 3 3 2 2 3 3 3 2 2 2 2 2 2 3 3 3 3
12 12 12 13 12 13 13 13 13 11 10 10 8 7 6 5 4 4 4 4 3 3 5 5 4 4 3 3 3 3 3 3 3 3 3 2 2 2 2 2 3 3 3
12 12 12 11 10 11 12 12 13 11 11 10 8 7 6 5 5 5 4 4 3 3 4 5 4 4 4 4 3 3 4 3 3 4 3 2 3 2 2 2 2 3 3
10 11 12 12 11 10 9 10 11 10 10 10 8 7 7 6 5 5 5 4 3 3 4 5 5 4 4 4 3 2 2 2 2 3 2 2 2 2 1 2 2 2 3
9 10 11 11 11 11 9 9 9 9 9 9 8 8 7 7 5 4 4 4 3 3 3 4 4 4 4 4 3 3 3 2 2 2 1 1 2 2 2 2 2 2 2
6 8 9 10 10 10 9 9 9 8 8 8 7 6 7 7 6 5 5 4 3 3 4 4 4 4 4 4 4 4 3 3 2 2 1 1 1 1 2 2 2 2 1
4 7 8 8 8 8 9 8 9 9 8 8 6 6 5 6 6 6 5 5 4 4 4 4 4 4 4 4 4 4 3 3 2 2 1 1 1 1 1 2 2 2 2
5 6 6 6 6 6 7 8 7 8 8 7 7 6 5 5 6 5 5 5 5 4 5 5 5 4 4 4 4 3 3 2 2 1 1 1 1 1 1 2 2 2 2
5 5 5 5 4 4 4 5 5 5 6 6 7 6 6 5 5 5 5 5 5 5 5 5 5 5 4 4 3 3 3 3 2 1 1 0 0 1 2 2 2 2 2
5 5 5 4 3 3 3 3 3 3 5 6 6 7 6 5 5 5 5 5 5 6 5 5 5 4 4 4 4 3 4 3 2 2 1 1 2 1 1 2 2 2 2
5 5 4 3 2 2 2 2 2 3 4 6 6 6 6 5 5 5 5 5 5 4 5 5 5 5 4 4 4 4 3 3 3 2 2 3 3 2 1 0 1 1 2
3 3 2 1 2 2 1 2 2 3 3 4 5 5 5 5 6 6 6 5 5 4 4 5 4 4 3 5 5 4 4 4 3 3 2 2 2 2 1 2 2 1 1
2 2 3 2 1 1 1 0 1 2 3 3 3 4 5 5 5 5 5 5 4 5 4 4 4 4 3 5 5 5 4 4 3 3 2 2 2 1 1 1 1 1 1
4 3 3 3 2 1 1 1 2 2 3 4 3 3 4 5 5 6 5 4 4 4 4 4 5 4 4 4 5 4 4 3 4 3 2 2 2 2 2 1 1 1 1
4 3 3 3 2 2 1 2 2 2 3 3 3 3 4 5 5 5 4 4 3 4 3 3 4 4 4 4 5 5 3 4 3 3 4 3 3 3 1 1 1 1 1
3 3 3 3 2 2 2 2 3 3 3 2 2 3 3 4 5 4 4 4 5 5 4 4 4 4 4 5 5 5 3 3 4 4 3 3 4 4 2 2 2 2 2
4 4 3 3 2 2 2 3 3 3 2 2 3 3 3 4 3 4 4 4 4 5 5 5 4 3 4 5 6 6 5 3 3 3 3 4 6 5 4 2 2 2 3
4 4 4 3 3 3 3 3 3 2 2 2 2 3 3 3 3 4 4 3 3 3 4 4 4 3 3 3 5 6 6 4 3 2 4 6 6 5 5 5 4 3 2
3 4 4 3 4 3 3 3 3 2 2 3 3 2 2 2 2 3 3 4 3 4 4 4 3 4 3 3 3 4 4 4 3 2 4 6 5 4 4 4 4 3 2
3 3 3 3 4 3 3 3 3 2 3 3 3 3 3 2 2 1 1 2 2 3 3 3 3 4 4 4 5 4 4 4 4 3 3 3 3 4 3 3 3 3 3
3 3 4 4 4 4 4 3 3 2 3 4 3 3 2 2 2 2 1 2 2 3 3 2 3 2 3 4 5 5 5 5 5 4 4 4 4 4 4 4 4 3 2
Wind_Direction
177 171 174 170 168 167 167 172 180 173 181 186 190 189 194 199 190 188 178 186 191 190 202 222 195 221 218 209 219 221 230 236 231 251 274 261 239 223 222 222 226 219 211
176 172 177 178 175 172 171 174 180 176 185 189 192 198 198 207 191 188 170 180 186 194 207 203 215 218 221 221 228 230 248 255 226 222 268 284 287 258 235 214 223 231 221
178 175 181 184 180 175 177 183 182 179 187 185 187 201 190 219 205 181 180 188 189 195 213 196 218 224 221 209 216 226 235 250 256 223 226 259 272 299 280 246 225 212 215
179 176 181 187 184 179 179 177 173 176 180 186 199 198 198 203 206 190 183 186 189 200 206 203 210 217 229 213 221 213 230 240 256 259 235 243 261 277 301 298 276 236 226
181 177 182 186 185 181 176 173 170 176 178 188 200 207 211 213 206 186 177 189 195 205 208 202 204 208 223 226 223 211 237 250 250 258 260 255 250 237 246 278 290 292 256
181 179 180 176 180 177 174 171 170 175 180 189 197 202 213 220 218 193 179 193 197 203 202 200 196 206 220 217 210 219 232 239 251 262 269 264 255 243 238 259 276 275 271
174 174 174 174 176 176 176 171 170 177 183 189 197 199 207 211 212 212 204 208 204 199 195 197 182 200 214 216 210 218 233 230 234 243 257 266 270 275 266 267 277 285 284
174 173 172 167 171 177 174 171 170 176 183 188 193 195 201 208 209 213 220 204 209 204 178 174 179 191 206 222 206 221 227 218 225 246 248 259 267 269 271 266 278 291 288
171 169 167 167 167 171 169 169 166 173 181 186 186 191 196 205 213 203 206 216 215 199 170 173 185 195 203 219 220 223 237 224 225 248 249 249 276 273 272 262 247 261 286
161 163 163 166 169 171 165 161 161 170 179 184 190 192 193 198 208 208 208 211 211 206 170 177 190 197 200 205 212 223 224 216 224 228 252 277 292 306 297 298 294 264 265
151 153 155 159 162 163 162 164 163 169 176 186 192 192 188 194 198 201 207 211 213 199 190 193 198 198 201 203 205 219 210 213 223 242 231 246 289 325 318 315 310 309 299
110 133 140 139 149 158 163 166 172 178 182 184 184 191 187 190 198 203 202 199 201 201 198 199 199 204 204 198 203 220 214 210 214 229 247 276 291 306 304 310 301 296 283
94 107 121 135 148 156 158 165 179 183 182 180 180 185 193 197 202 202 198 197 197 203 204 199 201 204 200 195 199 206 205 210 215 220 221 265 315 313 320 301 307 310 308
90 99 106 106 114 131 138 153 171 180 181 182 185 185 194 201 205 206 198 195 196 200 199 199 200 195 191 191 194 197 197 197 193 184 186 169 45 329 308 287 306 307 309
84 84 92 97 110 116 125 142 161 168 180 182 191 189 190 198 203 201 200 199 201 202 192 197 198 190 190 198 194 198 196 181 180 191 182 136 98 76 343 316 337 328 313
58 62 79 100 106 123 144 152 171 179 182 185 196 190 187 190 192 195 197 197 195 199 194 196 192 191 197 168 169 185 176 175 181 193 190 166 144 149 162 342 354 313 303
51 31 42 76 136 139 139 168 179 184 192 196 195 186 188 191 190 194 192 194 195 194 196 203 190 176 171 163 156 183 181 175 179 188 200 224 151 169 190 211 209 208 250
61 42 11 5 21 49 49 326 213 189 193 204 205 187 186 192 194 197 196 199 196 195 194 196 189 176 179 168 166 182 187 179 179 185 193 183 127 55 8 268 228 233 244
43 29 358 343 0 354 336 309 253 220 207 206 210 199 195 201 203 202 201 199 196 199 196 191 183 178 178 178 172 181 189 192 190 176 151 150 134 88 20 287 256 252 266
31 12 351 347 350 348 320 289 271 255 239 229 219 207 200 205 208 204 194 190 195 201 195 189 184 179 173 174 174 192 200 198 191 162 139 118 125 126 93 295 290 272 274
3 356 357 346 347 335 312 280 277 267 270 275 247 224 203 204 203 192 191 188 189 188 186 185 185 178 173 169 178 193 217 207 194 183 169 162 159 157 182 259 280 267 283
356 349 354 350 347 335 314 291 282 290 291 279 265 249 234 232 209 191 197 193 191 187 184 180 179 173 168 169 188 194 216 238 205 190 169 163 167 176 199 226 269 278 277
350 344 343 345 344 338 325 301 303 308 300 285 262 250 249 237 200 186 190 184 186 198 198 191 182 173 172 169 178 186 204 230 212 172 157 161 174 189 205 219 231 237 246
340 335 335 335 333 334 327 315 310 301 286 279 271 251 231 223 196 184 186 183 193 203 196 195 193 185 187 181 182 192 196 200 197 183 164 166 182 207 216 193 209 217 237
318 319 315 309 307 312 311 310 313 312 292 281 259 239 231 206 189 187 220 200 180 200 203 203 195 196 204 199 184 194 204 205 206 186 176 183 184 196 200 199 201 204 215
316 307 300 300 299 297 295 295 298 290 276 268 259 248 237 216 196 174 143 54 145 162 166 174 178 198 182 164 169 183 193 191 187 184 190 195 198 201 200 200 201 200 209